LGL5C EDDN-ELLX

Flight info

Callsign LGL5C
Flight time 0h 40m
Altitude 24000
Route SUKAD1G SUKAD Y165 EDUDU Y101 OSBIT Z118 KOSEK Z104 ODVUX T894 BITBU Z110 BETEX
Aircraft B738/M-SADFGILRWY/SB1

Departure

Time 2026-05-05 15:49
Airport Nuremberg Airport (EDDN)

Arrival

Time 2026-05-05 16:29
Airport Luxembourg-Findel International Airport (ELLX)
Time Latitude Longitude Altitude Speed Heading
2026-05-05 15:12 49.49559 11.07395 1025 ft 0 kts 188°
2026-05-05 15:40 49.49560 11.07395 1025 ft 1 kts 188°
2026-05-05 15:41 49.49575 11.07398 1025 ft 2 kts 188°
2026-05-05 15:41 49.49589 11.07402 1025 ft 2 kts 188°
2026-05-05 15:41 49.49599 11.07404 1025 ft 2 kts 188°
2026-05-05 15:41 49.49614 11.07400 1025 ft 2 kts 146°
2026-05-05 15:42 49.49624 11.07384 1025 ft 2 kts 111°
2026-05-05 15:42 49.49625 11.07373 1025 ft 1 kts 93°
2026-05-05 15:42 49.49626 11.07367 1025 ft 0 kts 98°
2026-05-05 15:45 49.49619 11.07432 1025 ft 8 kts 100°
2026-05-05 15:45 49.49606 11.07544 1026 ft 11 kts 101°
2026-05-05 15:45 49.49593 11.07675 1026 ft 12 kts 97°
2026-05-05 15:45 49.49576 11.07849 1027 ft 19 kts 100°
2026-05-05 15:46 49.49554 11.08085 1029 ft 23 kts 98°
2026-05-05 15:46 49.49536 11.08273 1031 ft 14 kts 98°
2026-05-05 15:46 49.49588 11.08359 1032 ft 12 kts 21°
2026-05-05 15:46 49.49649 11.08454 1033 ft 12 kts 54°
2026-05-05 15:47 49.49680 11.08522 1034 ft 11 kts 50°
2026-05-05 15:47 49.49717 11.08556 1035 ft 6 kts 19°
2026-05-05 15:47 49.49787 11.08579 1035 ft 4 kts 313°
2026-05-05 15:47 49.49794 11.08558 1035 ft 0 kts 283°
2026-05-05 15:48 49.49795 11.08548 1035 ft 5 kts 283°
2026-05-05 15:48 49.49823 11.08264 1031 ft 66 kts 278°
2026-05-05 15:49 49.49889 11.07592 1026 ft 122 kts 277°
2026-05-05 15:49 49.50044 11.06046 1476 ft 153 kts 274°
2026-05-05 15:49 49.50159 11.04049 2801 ft 148 kts 277°
2026-05-05 15:49 49.50226 11.02981 3270 ft 153 kts 280°
2026-05-05 15:50 49.50456 11.00896 4329 ft 154 kts 283°
2026-05-05 15:50 49.50600 10.99828 4783 ft 160 kts 281°
2026-05-05 15:50 49.50853 10.97409 5618 ft 182 kts 278°
2026-05-05 15:50 49.51062 10.95440 6277 ft 198 kts 278°
2026-05-05 15:51 49.51296 10.93279 6932 ft 215 kts 277°
2026-05-05 15:51 49.51539 10.90933 7627 ft 231 kts 276°
2026-05-05 15:51 49.51781 10.88412 8304 ft 248 kts 275°
2026-05-05 15:51 49.52036 10.85709 9005 ft 264 kts 275°
2026-05-05 15:52 49.52310 10.82846 9685 ft 280 kts 275°
2026-05-05 15:52 49.52599 10.79857 10448 ft 291 kts 275°
2026-05-05 15:52 49.52908 10.76703 11298 ft 301 kts 276°
2026-05-05 15:52 49.53217 10.73561 12300 ft 305 kts 276°
2026-05-05 15:53 49.53525 10.70332 13194 ft 309 kts 275°
2026-05-05 15:53 49.53825 10.67072 14175 ft 313 kts 275°
2026-05-05 15:53 49.54125 10.63777 15152 ft 318 kts 275°
2026-05-05 15:53 49.54436 10.60382 16135 ft 322 kts 275°
2026-05-05 15:54 49.54849 10.56972 17025 ft 329 kts 282°
2026-05-05 15:54 49.55760 10.53742 17823 ft 340 kts 301°
2026-05-05 15:54 49.57379 10.51043 18623 ft 350 kts 320°
2026-05-05 15:54 49.59413 10.48941 19396 ft 356 kts 326°
2026-05-05 15:55 49.61543 10.46948 20129 ft 362 kts 328°
2026-05-05 15:55 49.62977 10.45633 20635 ft 365 kts 328°
2026-05-05 15:55 49.65880 10.42892 21616 ft 372 kts 327°
2026-05-05 15:55 49.68047 10.40728 22321 ft 376 kts 324°
2026-05-05 15:56 49.70099 10.38204 23011 ft 379 kts 316°
2026-05-05 15:56 49.71963 10.35348 23631 ft 375 kts 311°
2026-05-05 15:56 49.73739 10.32372 23796 ft 373 kts 309°
2026-05-05 15:56 49.74891 10.30395 23795 ft 373 kts 309°
2026-05-05 15:57 49.77197 10.26464 23794 ft 370 kts 310°
2026-05-05 15:57 49.78968 10.23508 23791 ft 376 kts 310°
2026-05-05 15:57 49.80757 10.20576 23790 ft 371 kts 311°
2026-05-05 15:58 49.84323 10.14822 23787 ft 371 kts 311°
2026-05-05 15:58 49.86115 10.11948 23789 ft 372 kts 311°
2026-05-05 15:58 49.87918 10.09060 23790 ft 371 kts 311°
2026-05-05 15:58 49.89697 10.06211 23789 ft 371 kts 311°
2026-05-05 15:59 49.91507 10.03309 23789 ft 371 kts 311°
2026-05-05 15:59 49.93300 10.00431 23789 ft 372 kts 311°
2026-05-05 15:59 49.95094 9.97550 23785 ft 371 kts 311°
2026-05-05 15:59 49.96886 9.94666 23789 ft 370 kts 312°
2026-05-05 16:00 49.98679 9.91781 23786 ft 370 kts 312°
2026-05-05 16:00 50.00468 9.88897 23784 ft 370 kts 311°
2026-05-05 16:00 50.02221 9.85984 23789 ft 370 kts 308°
2026-05-05 16:00 50.03735 9.82783 23787 ft 367 kts 297°
2026-05-05 16:01 50.04778 9.79198 23788 ft 363 kts 284°
2026-05-05 16:01 50.05340 9.75423 23790 ft 359 kts 275°
2026-05-05 16:01 50.05558 9.71564 23789 ft 356 kts 267°
2026-05-05 16:01 50.05379 9.67783 23793 ft 352 kts 257°
2026-05-05 16:02 50.04889 9.64079 23794 ft 350 kts 253°
2026-05-05 16:02 50.04288 9.60412 23791 ft 349 kts 252°
2026-05-05 16:02 50.03661 9.56771 23794 ft 350 kts 251°
2026-05-05 16:02 50.03035 9.53129 23798 ft 350 kts 252°
2026-05-05 16:03 50.02416 9.49467 23802 ft 350 kts 252°
2026-05-05 16:03 50.01803 9.45796 23804 ft 351 kts 252°
2026-05-05 16:03 50.01270 9.42073 23806 ft 353 kts 258°
2026-05-05 16:03 50.01057 9.38268 23815 ft 356 kts 265°
2026-05-05 16:04 50.01028 9.34443 23815 ft 358 kts 266°
2026-05-05 16:04 50.01057 9.30531 23820 ft 358 kts 267°
2026-05-05 16:04 50.01087 9.26686 23819 ft 358 kts 267°
2026-05-05 16:04 50.01103 9.22801 23818 ft 358 kts 266°
2026-05-05 16:05 50.01100 9.18907 23819 ft 358 kts 266°
2026-05-05 16:05 50.01084 9.15084 23818 ft 357 kts 266°
2026-05-05 16:05 50.01057 9.11181 23822 ft 357 kts 266°
2026-05-05 16:05 50.01024 9.07365 23822 ft 357 kts 266°
2026-05-05 16:06 50.00985 9.03534 23821 ft 355 kts 265°
2026-05-05 16:06 50.00972 9.02252 23821 ft 355 kts 265°
2026-05-05 16:06 50.00898 8.95843 23824 ft 357 kts 266°
2026-05-05 16:06 50.00867 8.93245 23823 ft 358 kts 265°
2026-05-05 16:07 50.00802 8.88074 23822 ft 357 kts 265°
2026-05-05 16:07 50.00769 8.85506 23823 ft 357 kts 266°
2026-05-05 16:07 50.00719 8.81679 23824 ft 358 kts 265°
2026-05-05 16:07 50.00666 8.77813 23826 ft 358 kts 266°
2026-05-05 16:08 50.00594 8.72684 23832 ft 358 kts 266°
2026-05-05 16:08 50.00538 8.68798 23828 ft 358 kts 266°
2026-05-05 16:08 50.00483 8.64955 23833 ft 358 kts 266°
2026-05-05 16:08 50.00425 8.61065 23832 ft 357 kts 266°
2026-05-05 16:09 50.00366 8.57199 23834 ft 357 kts 266°
2026-05-05 16:09 50.00307 8.53354 23830 ft 357 kts 266°
2026-05-05 16:09 50.00246 8.49514 23832 ft 357 kts 266°
2026-05-05 16:09 50.00183 8.45654 23827 ft 357 kts 266°
2026-05-05 16:10 50.00120 8.41828 23832 ft 357 kts 266°
2026-05-05 16:10 50.00055 8.37953 23832 ft 357 kts 266°
2026-05-05 16:10 49.99989 8.34115 23830 ft 357 kts 265°
2026-05-05 16:10 49.99921 8.30270 23828 ft 357 kts 265°
2026-05-05 16:11 49.99852 8.26432 23825 ft 357 kts 265°
2026-05-05 16:11 49.99655 8.15697 23823 ft 357 kts 265°
2026-05-05 16:12 49.99582 8.11876 23820 ft 357 kts 265°
2026-05-05 16:12 49.99432 8.04142 23816 ft 357 kts 265°
2026-05-05 16:13 49.99267 7.92615 23814 ft 357 kts 267°
2026-05-05 16:13 49.99270 7.88758 23749 ft 358 kts 267°
2026-05-05 16:13 49.99278 7.84865 23492 ft 361 kts 268°
2026-05-05 16:14 49.99282 7.77129 22986 ft 359 kts 268°
2026-05-05 16:14 49.99267 7.69380 22478 ft 356 kts 268°
2026-05-05 16:15 49.99240 7.61720 21945 ft 354 kts 268°
2026-05-05 16:15 49.99206 7.54162 21090 ft 349 kts 268°
2026-05-05 16:16 49.99168 7.46685 20198 ft 343 kts 268°
2026-05-05 16:16 49.98528 7.39353 18689 ft 352 kts 253°
2026-05-05 16:17 49.97067 7.31996 17177 ft 359 kts 250°
2026-05-05 16:17 49.96339 7.28308 16565 ft 358 kts 251°
2026-05-05 16:18 49.95002 7.20869 15202 ft 358 kts 253°
2026-05-05 16:18 49.94372 7.17143 14599 ft 355 kts 253°
2026-05-05 16:18 49.93133 7.09734 13376 ft 350 kts 254°
2026-05-05 16:19 49.92529 7.06130 12838 ft 346 kts 254°
2026-05-05 16:19 49.91929 7.02574 12335 ft 341 kts 254°
2026-05-05 16:19 49.90745 6.95583 11308 ft 333 kts 255°
2026-05-05 16:20 49.89581 6.88702 10443 ft 321 kts 255°
2026-05-05 16:20 49.88700 6.83505 10212 ft 299 kts 255°
2026-05-05 16:21 49.87676 6.77510 9977 ft 275 kts 254°
2026-05-05 16:22 49.86129 6.69111 8925 ft 269 kts 243°
2026-05-05 16:22 49.83705 6.64788 8168 ft 267 kts 224°
2026-05-05 16:23 49.81037 6.60887 7080 ft 263 kts 223°
2026-05-05 16:23 49.79705 6.58950 6442 ft 260 kts 223°
2026-05-05 16:23 49.77101 6.55169 5403 ft 251 kts 223°
2026-05-05 16:24 49.75834 6.53330 5106 ft 247 kts 223°
2026-05-05 16:24 49.74586 6.51520 4806 ft 244 kts 223°
2026-05-05 16:24 49.72223 6.47860 4254 ft 236 kts 237°
2026-05-05 16:25 49.71566 6.45598 4034 ft 231 kts 249°
2026-05-05 16:25 49.70146 6.41338 3598 ft 218 kts 238°
2026-05-05 16:25 49.69371 6.39352 3349 ft 214 kts 239°
2026-05-05 16:26 49.67967 6.35504 2971 ft 196 kts 240°
2026-05-05 16:26 49.66707 6.32098 2500 ft 163 kts 239°
2026-05-05 16:27 49.66184 6.30684 2274 ft 146 kts 238°
2026-05-05 16:27 49.65707 6.29403 2090 ft 130 kts 239°
2026-05-05 16:27 49.65270 6.28237 1924 ft 121 kts 237°
2026-05-05 16:27 49.64844 6.27076 1781 ft 128 kts 239°
2026-05-05 16:28 49.64393 6.25853 1601 ft 131 kts 239°
2026-05-05 16:28 49.64091 6.25044 1479 ft 131 kts 239°
2026-05-05 16:28 49.63478 6.23392 1242 ft 134 kts 238°
2026-05-05 16:28 49.63087 6.22346 1220 ft 77 kts 241°
2026-05-05 16:29 49.62973 6.22036 1223 ft 61 kts 241°
2026-05-05 16:29 49.62782 6.21523 1231 ft 50 kts 240°
2026-05-05 16:29 49.62653 6.21084 1236 ft 39 kts 262°
2026-05-05 16:29 49.62662 6.20775 1237 ft 18 kts 309°
2026-05-05 16:30 49.62739 6.20737 1237 ft 13 kts 22°
2026-05-05 16:30 49.62818 6.20810 1238 ft 14 kts 56°
2026-05-05 16:30 49.62869 6.20987 1237 ft 23 kts 66°
2026-05-05 16:30 49.62949 6.21214 1235 ft 26 kts 64°
2026-05-05 16:31 49.63027 6.21490 1232 ft 28 kts 63°
2026-05-05 16:31 49.63107 6.21744 1228 ft 13 kts 68°
2026-05-05 16:31 49.63162 6.21760 1228 ft 10 kts 335°
2026-05-05 16:31 49.63174 6.21704 1228 ft 6 kts 242°
2026-05-05 16:32 49.63162 6.21670 1229 ft 0 kts 240°